CW1575 Weather Reports


time (UTC)temp
F
wind
direction
speed
knots
gust
knots
rain 1hr
in
rain 24hr
in
rain mn
in
humidity
%
barometer
mb
20260506051004 31 0 0.0 0.0 0.01 0.26 0.15 95 1015.4
20260506044504 31 0 0.0 0.0 0.01 0.26 0.15 95 1015.1
20260506044005 31 0 0.0 0.0 0.01 0.26 0.15 95 1015.2
20260506043505 31 0 0.0 0.0 0.01 0.26 0.15 95 1015.2
20260506043004 31 0 0.0 0.0 0.01 0.26 0.15 95 1015.2
20260506042505 31 0 0.0 0.0 0.01 0.26 0.15 95 1015.2
20260506041504 31 0 0.0 0.0 0.01 0.26 0.15 95 1015.2
20260506041004 31 0 0.0 0.0 0.00 0.25 0.14 95 1015.0
20260506040504 31 0 0.0 0.0 0.00 0.25 0.14 95 1014.9
20260506040004 31 0 0.0 0.0 0.00 0.25 0.14 95 1015.2
20260506035504 31 0 0.0 0.0 0.00 0.25 0.14 95 1015.1
20260506035005 31 0 0.0 0.0 0.00 0.25 0.14 94 1014.8
20260506034004 31 0 0.0 0.0 0.00 0.25 0.14 94 1014.8
20260506033504 31 0 0.0 0.0 0.00 0.25 0.14 94 1014.7
20260506033005 31 0 0.0 0.0 0.00 0.25 0.14 95 1014.6
20260506032504 31 0 0.0 0.0 0.00 0.25 0.14 95 1014.5
20260506032004 31 0 0.0 0.0 0.00 0.25 0.14 94 1014.3
20260506031005 31 0 0.0 0.0 0.00 0.25 0.14 94 1014.1
20260506030503 31 0 0.0 0.0 0.00 0.25 0.14 94 1013.9
20260506030004 31 0 0.0 0.0 0.00 0.25 0.14 94 1013.9
20260506025504 31 0 0.0 0.0 0.00 0.25 0.14 94 1013.6
20260506025005 31 0 0.0 0.0 0.00 0.25 0.14 94 1013.5
20260506024504 31 0 0.0 0.0 0.00 0.25 0.14 94 1013.5
20260506024005 31 0 0.0 0.0 0.00 0.25 0.14 94 1013.4
20260506023504 31 0 0.0 0.0 0.00 0.25 0.14 94 1013.3
20260506023004 31 0 0.0 0.9 0.00 0.25 0.14 94 1013.2
20260506022504 31 0 0.0 0.0 0.00 0.25 0.14 94 1013.0
20260506022004 31 0 0.0 0.0 0.00 0.25 0.14 94 1012.7
20260506021504 31 0 0.0 0.0 0.00 0.25 0.14 94 1012.6
20260506021004 31 0 0.0 0.0 0.00 0.25 0.14 94 1012.6
20260506020504 31 0 0.0 0.0 0.00 0.25 0.14 94 1012.5
20260506015504 31 0 0.0 0.0 0.00 0.25 0.14 94 1012.3
20260506015004 31 0 0.0 0.0 0.00 0.25 0.14 94 1012.2
20260506014504 31 0 0.0 0.0 0.00 0.25 0.14 94 1012.1
20260506014005 31 0 0.0 0.0 0.00 0.25 0.14 94 1012.1
20260506013504 31 0 0.0 0.0 0.00 0.25 0.14 94 1012.2
20260506013004 31 0 0.0 0.0 0.00 0.25 0.14 94 1012.0
20260506012504 31 0 0.0 0.0 0.00 0.25 0.14 94 1011.8
20260506012005 31 0 0.0 0.0 0.00 0.25 0.14 94 1011.7
20260506011504 31 0 0.0 0.0 0.00 0.25 0.14 94 1011.7
20260506011004 31 0 0.0 0.0 0.00 0.25 0.14 94 1011.6
20260506010504 31 0 0.0 0.0 0.00 0.25 0.14 93 1011.4
20260506010004 31 0 0.0 0.0 0.00 0.25 0.14 93 1011.3
20260506005504 31 0 0.0 0.0 0.00 0.25 0.14 93 1011.4
20260506005004 32 0 0.0 0.0 0.00 0.25 0.14 93 1011.5
20260506004504 31 0 0.0 0.0 0.00 0.25 0.14 93 1011.3
20260506004003 31 0 0.0 0.0 0.00 0.25 0.14 93 1011.1
20260506003504 31 0 0.0 0.0 0.00 0.25 0.14 93 1011.0
20260506003005 31 0 0.0 0.0 0.00 0.25 0.14 93 1010.9
20260506002504 31 0 0.0 0.0 0.00 0.25 0.14 93 1010.9
20260506002003 31 0 0.0 0.0 0.00 0.25 0.14 93 1010.9
20260506001504 31 0 0.0 0.0 0.00 0.25 0.14 93 1010.6
20260506001003 31 0 0.0 0.0 0.01 0.25 0.14 93 1010.5
20260506000504 31 0 0.0 0.0 0.01 0.25 0.14 92 1010.5
20260506000004 32 0 0.0 0.0 0.01 0.25 0.14 92 1010.3
20260505235503 32 0 0.0 4.3 0.02 0.25 0.14 92 1010.2
20260505235004 32 0 1.7 4.3 0.02 0.25 0.14 92 1010.0
20260505234503 32 0 1.7 5.2 0.02 0.25 0.14 92 1010.0
20260505234004 32 0 0.9 2.6 0.02 0.25 0.14 92 1010.2
20260505233503 32 0 1.7 2.6 0.02 0.25 0.14 92 1010.0
20260505233004 32 0 0.9 7.0 0.02 0.25 0.14 92 1009.7
20260505232504 33 0 0.9 4.3 0.02 0.25 0.14 91 1009.5
20260505232004 33 0 0.9 7.0 0.02 0.25 0.14 91 1009.4
20260505231504 33 0 2.6 7.8 0.02 0.25 0.14 91 1009.4
20260505231004 34 0 2.6 10.4 0.01 0.24 0.13 91 1009.2
20260505225504 34 0 2.6 5.2 0.02 0.24 0.13 91 1009.4
20260505225004 35 0 1.7 7.0 0.02 0.24 0.13 91 1009.3
20260505224004 36 0 4.3 10.4 0.01 0.23 0.12 91 1008.8
20260505183503 39 0 0.9 4.3 0.01 0.23 0.12 94 1008.2
20260505182004 39 0 0.9 4.3 0.01 0.23 0.12 95 1008.2
20260505181504 38 0 1.7 5.2 0.01 0.23 0.12 95 1008.1
20260505181003 38 0 1.7 5.2 0.01 0.23 0.12 94 1008.1
20260505180504 38 0 0.0 1.7 0.01 0.23 0.12 95 1008.1
20260505175504 38 0 0.9 2.6 0.00 0.22 0.11 95 1008.2
20260505175004 38 0 1.7 2.6 0.00 0.22 0.11 94 1008.3
20260505173504 37 0 0.9 2.6 0.00 0.22 0.11 94 1008.3
20260505173005 37 0 0.9 2.6 0.00 0.22 0.11 94 1008.4
20260505172504 37 0 0.9 5.2 0.00 0.22 0.11 94 1008.4
20260505172004 37 0 0.9 1.7 0.00 0.22 0.11 94 1008.4
20260505171504 37 0 1.7 2.6 0.00 0.22 0.11 94 1008.4
20260505171004 37 0 1.7 2.6 0.00 0.22 0.11 94 1008.4
20260505170503 37 0 1.7 2.6 0.01 0.22 0.11 94 1008.3
20260505165004 37 0 1.7 2.6 0.01 0.22 0.11 94 1008.3
20260505164504 37 0 1.7 4.3 0.01 0.22 0.11 94 1008.3
20260505164004 37 0 1.7 2.6 0.01 0.22 0.11 94 1008.4
20260505163503 37 0 0.9 2.6 0.01 0.22 0.11 94 1008.4
20260505163004 37 0 0.9 2.6 0.01 0.22 0.11 94 1008.4
20260505162504 37 0 1.7 2.6 0.01 0.22 0.11 94 1008.3
20260505162004 37 0 1.7 2.6 0.01 0.22 0.11 94 1008.3
20260505161503 37 0 1.7 2.6 0.01 0.22 0.11 94 1008.3
20260505161004 37 0 1.7 2.6 0.01 0.22 0.11 94 1008.2
20260505160504 37 0 0.9 2.6 0.00 0.21 0.10 94 1008.2
20260505153004 36 0 2.6 4.3 0.01 0.21 0.10 94 1008.3
20260505152504 36 0 1.7 2.6 0.01 0.21 0.10 94 1008.4
20260505152004 36 0 1.7 4.3 0.01 0.21 0.10 94 1008.3
20260505151503 35 0 0.9 2.6 0.01 0.21 0.10 94 1008.2
20260505150503 35 0 1.7 4.3 0.02 0.21 0.10 94 1008.2
20260505140504 35 0 1.7 4.3 0.01 0.19 0.08 93 1008.5
20260505125004 35 0 1.7 4.3 0.02 0.17 0.06 93 1007.1
20260505124503 35 0 1.7 5.2 0.03 0.17 0.06 93 1007.1
20260505124004 35 0 1.7 7.0 0.03 0.17 0.06 92 1007.1
20260505123504 36 0 3.5 7.0 0.03 0.17 0.06 92 1006.9
20260505123004 36 0 2.6 10.4 0.03 0.17 0.06 92 1006.9
20260505122504 36 0 3.5 10.4 0.03 0.16 0.05 92 1006.9
20260505122004 36 0 2.6 8.7 0.03 0.16 0.05 92 1006.9
20260505121504 37 0 4.3 10.4 0.03 0.16 0.05 92 1006.7
20260505121003 37 0 2.6 7.0 0.04 0.16 0.05 92 1006.6
20260505120005 37 0 2.6 7.0 0.03 0.15 0.04 92 1006.4
20260505115505 37 0 2.6 10.4 0.03 0.15 0.04 92 1006.3
20260505114504 38 0 4.3 7.8 0.02 0.14 0.03 92 1006.2
20260505114005 38 0 2.6 10.4 0.02 0.14 0.03 92 1006.1
20260505113005 38 0 4.3 12.2 0.02 0.14 0.03 92 1005.8
20260505112505 38 0 5.2 10.4 0.01 0.13 0.02 92 1005.9
20260505112005 38 0 1.7 8.7 0.02 0.13 0.02 92 1005.9
20260505111505 38 0 3.5 8.7 0.02 0.13 0.02 91 1005.8
20260505111005 39 0 4.3 11.3 0.01 0.12 0.01 91 1005.7
20260505110504 39 0 4.3 10.4 0.01 0.12 0.01 91 1005.7
20260505102004 41 0 5.2 12.2 0.00 0.11 0.00 92 1004.5
20260505101504 41 0 5.2 12.2 0.00 0.11 0.00 92 1004.4
20260505100504 41 0 4.3 8.7 0.00 0.11 0.00 92 1004.3
20260505100005 42 0 2.6 10.4 0.00 0.11 0.00 92 1004.1
20260505095504 42 0 4.3 10.4 0.00 0.11 0.00 92 1004.0
20260505094504 42 0 4.3 10.4 0.00 0.11 0.00 91 1003.9
20260505094006 42 0 6.1 10.4 0.00 0.11 0.00 91 1003.9
20260505093004 42 0 4.3 7.8 0.00 0.11 0.00 91 1003.9
20260505092504 42 0 4.3 11.3 0.00 0.11 0.00 91 1003.8
20260505092005 43 0 4.3 10.4 0.00 0.11 0.00 91 1003.8
20260505091505 43 0 5.2 11.3 0.00 0.11 0.00 91 1003.7
20260505091004 43 0 4.3 15.6 0.00 0.11 0.00 90 1003.5
20260505090004 44 0 6.1 12.2 0.00 0.11 0.00 90 1003.4
20260505085504 45 0 5.2 11.3 0.00 0.11 0.00 91 1003.3
20260505085005 45 0 3.5 10.4 0.00 0.11 0.00 90 1003.2
20260505084504 46 0 4.3 10.4 0.00 0.11 0.00 91 1003.2
20260505084004 47 0 7.0 10.4 0.00 0.11 0.00 92 1003.2
20260505083505 47 0 0.9 2.6 0.00 0.11 0.00 92 1003.2
20260505083005 47 0 0.9 5.2 0.00 0.11 0.00 92 1003.3
20260505082505 47 0 0.9 2.6 0.00 0.11 0.00 92 1003.4
20260505082005 46 0 0.9 2.6 0.00 0.11 0.00 92 1003.3
20260505081005 46 0 0.0 0.0 0.00 0.11 0.00 92 1003.4
20260505080504 46 0 0.0 0.0 0.00 0.11 0.00 92 1003.4
20260505080004 46 0 0.0 0.0 0.00 0.11 0.00 92 1003.3
20260505075504 46 0 0.0 0.0 0.00 0.11 0.00 92 1003.2
20260505075005 46 0 0.0 0.0 0.00 0.11 0.00 91 1003.3
20260505074505 46 0 0.0 0.0 0.00 0.11 0.00 91 1003.3
20260505074005 46 0 0.0 0.0 0.00 0.11 0.00 91 1003.2
20260505073004 46 0 0.0 0.0 0.00 0.11 0.00 91 1003.4
20260505072005 46 0 0.0 0.0 0.00 0.11 0.00 91 1003.4
20260505071504 46 0 0.0 0.0 0.00 0.11 0.00 91 1003.4
20260505071005 46 0 0.0 0.9 0.00 0.11 0.00 91 1003.4
20260505070505 46 0 0.0 0.9 0.00 0.11 0.00 91 1003.6
20260505065004 46 0 0.0 0.0 0.00 0.11 0.00 90 1003.5
20260505064504 46 0 0.0 1.7 0.01 0.11 0.00 90 1003.5
20260505064005 46 0 0.0 1.7 0.01 0.11 0.00 90 1003.4
20260505063505 46 0 0.0 0.9 0.01 0.11 0.00 90 1003.5
20260505063004 46 0 0.0 0.0 0.01 0.11 0.00 90 1003.5
20260505062504 46 0 0.0 0.9 0.01 0.11 0.00 90 1003.4
20260505062005 46 0 0.0 0.9 0.01 0.11 0.00 90 1003.5
20260505061504 46 0 0.0 0.0 0.01 0.11 0.00 89 1003.4
20260505061004 46 0 0.0 0.0 0.01 0.11 0.00 89 1003.5
20260505060504 46 0 0.0 0.0 0.01 0.11 0.00 89 1003.4
20260505060004 46 0 0.0 0.0 0.01 0.11 0.00 89 1003.3